QPF
0.03 0.03 0.03 0.02 0.02 0.02 0.03 0.03 0.03 0.03 0.03 0.04 0.05 0.05 0.03 0.02 0.01 0.01 0.01 0.01 0.00 0.00 0.01 0.02 0.02 0.02 0.02 0.01 0.01 0.01 0.01 0.01 0.01 0.01 0.01 0.01 0.01 0.01 0.01 0.01 0.01 0.02 0.01
0.02 0.03 0.04 0.02 0.02 0.02 0.02 0.03 0.03 0.03 0.03 0.04 0.03 0.03 0.03 0.03 0.03 0.02 0.01 0.01 0.00 0.01 0.01 0.02 0.02 0.02 0.02 0.03 0.02 0.02 0.02 0.01 0.01 0.01 0.01 0.01 0.01 0.02 0.01 0.01 0.01 0.01 0.02
0.02 0.02 0.03 0.03 0.02 0.02 0.02 0.03 0.04 0.03 0.03 0.03 0.03 0.03 0.03 0.03 0.03 0.03 0.02 0.03 0.02 0.01 0.01 0.02 0.02 0.01 0.02 0.03 0.02 0.02 0.03 0.02 0.02 0.02 0.02 0.01 0.01 0.02 0.01 0.01 0.02 0.02 0.02
0.05 0.04 0.04 0.04 0.03 0.02 0.03 0.04 0.04 0.03 0.04 0.04 0.03 0.04 0.03 0.03 0.02 0.02 0.03 0.03 0.04 0.04 0.02 0.02 0.02 0.02 0.02 0.03 0.04 0.03 0.03 0.03 0.02 0.03 0.04 0.03 0.02 0.03 0.02 0.02 0.02 0.02 0.02
0.05 0.05 0.05 0.05 0.05 0.04 0.04 0.04 0.04 0.03 0.04 0.03 0.02 0.02 0.03 0.03 0.03 0.03 0.04 0.04 0.06 0.08 0.07 0.05 0.06 0.05 0.04 0.03 0.04 0.04 0.03 0.04 0.04 0.05 0.05 0.05 0.05 0.04 0.03 0.03 0.03 0.03 0.03
0.05 0.04 0.04 0.04 0.03 0.03 0.03 0.04 0.04 0.02 0.03 0.03 0.03 0.02 0.03 0.04 0.05 0.06 0.04 0.06 0.08 0.11 0.14 0.12 0.09 0.08 0.07 0.05 0.04 0.04 0.05 0.04 0.04 0.04 0.06 0.06 0.06 0.05 0.04 0.03 0.03 0.03 0.03
0.05 0.04 0.03 0.03 0.03 0.02 0.02 0.03 0.03 0.02 0.03 0.03 0.04 0.03 0.03 0.05 0.06 0.06 0.08 0.10 0.10 0.12 0.15 0.20 0.18 0.11 0.08 0.07 0.05 0.05 0.06 0.08 0.06 0.05 0.06 0.07 0.06 0.07 0.05 0.04 0.04 0.04 0.05
0.02 0.03 0.02 0.02 0.02 0.02 0.02 0.02 0.02 0.02 0.02 0.04 0.06 0.05 0.05 0.06 0.07 0.07 0.11 0.12 0.14 0.17 0.15 0.14 0.19 0.17 0.11 0.08 0.08 0.07 0.10 0.11 0.10 0.08 0.06 0.05 0.04 0.05 0.05 0.06 0.06 0.06 0.07
0.02 0.02 0.02 0.01 0.02 0.02 0.03 0.02 0.02 0.03 0.04 0.06 0.08 0.07 0.05 0.03 0.04 0.06 0.09 0.12 0.14 0.15 0.13 0.11 0.11 0.12 0.11 0.13 0.12 0.11 0.09 0.09 0.10 0.12 0.10 0.07 0.05 0.04 0.04 0.05 0.06 0.06 0.05
0.02 0.02 0.03 0.02 0.02 0.02 0.03 0.02 0.03 0.04 0.05 0.06 0.07 0.06 0.06 0.06 0.04 0.05 0.05 0.06 0.07 0.09 0.12 0.12 0.11 0.11 0.13 0.17 0.15 0.13 0.08 0.08 0.07 0.09 0.10 0.09 0.07 0.05 0.04 0.04 0.05 0.06 0.06
0.02 0.02 0.02 0.02 0.02 0.02 0.02 0.03 0.03 0.05 0.05 0.08 0.08 0.05 0.07 0.10 0.08 0.06 0.04 0.04 0.07 0.08 0.09 0.10 0.12 0.10 0.13 0.16 0.13 0.08 0.06 0.05 0.04 0.03 0.04 0.07 0.07 0.07 0.06 0.05 0.06 0.07 0.08
0.03 0.02 0.01 0.01 0.02 0.02 0.02 0.03 0.03 0.06 0.06 0.05 0.05 0.04 0.06 0.09 0.07 0.07 0.05 0.04 0.05 0.06 0.07 0.07 0.09 0.10 0.11 0.14 0.10 0.10 0.08 0.06 0.07 0.06 0.05 0.07 0.08 0.10 0.10 0.08 0.07 0.07 0.07
0.03 0.02 0.01 0.02 0.03 0.03 0.02 0.03 0.05 0.06 0.06 0.05 0.05 0.04 0.04 0.06 0.06 0.08 0.07 0.05 0.04 0.05 0.05 0.05 0.06 0.06 0.06 0.07 0.08 0.09 0.09 0.09 0.08 0.08 0.07 0.05 0.04 0.06 0.07 0.07 0.07 0.07 0.06
0.04 0.04 0.03 0.03 0.04 0.03 0.03 0.04 0.05 0.06 0.07 0.07 0.06 0.05 0.05 0.05 0.07 0.08 0.09 0.08 0.07 0.07 0.06 0.05 0.05 0.05 0.04 0.08 0.09 0.12 0.12 0.12 0.10 0.08 0.07 0.06 0.05 0.04 0.04 0.06 0.06 0.06 0.06
0.05 0.06 0.03 0.04 0.04 0.04 0.04 0.05 0.07 0.08 0.08 0.08 0.08 0.06 0.05 0.04 0.05 0.07 0.09 0.10 0.10 0.09 0.05 0.05 0.05 0.05 0.05 0.06 0.08 0.09 0.08 0.08 0.08 0.09 0.08 0.07 0.05 0.04 0.04 0.04 0.04 0.03 0.03
0.05 0.07 0.06 0.06 0.07 0.07 0.07 0.08 0.09 0.09 0.07 0.06 0.06 0.05 0.06 0.05 0.05 0.05 0.06 0.07 0.09 0.09 0.05 0.04 0.04 0.05 0.06 0.06 0.08 0.08 0.08 0.11 0.12 0.10 0.08 0.06 0.05 0.05 0.04 0.04 0.04 0.05 0.05
0.06 0.09 0.10 0.09 0.10 0.10 0.09 0.10 0.11 0.10 0.09 0.08 0.07 0.07 0.07 0.08 0.07 0.05 0.06 0.05 0.06 0.07 0.06 0.05 0.06 0.06 0.09 0.10 0.11 0.09 0.09 0.11 0.11 0.13 0.12 0.09 0.07 0.05 0.04 0.04 0.03 0.04 0.04
0.07 0.09 0.10 0.12 0.12 0.11 0.12 0.14 0.12 0.10 0.09 0.08 0.08 0.07 0.06 0.07 0.06 0.06 0.07 0.05 0.05 0.06 0.07 0.04 0.05 0.07 0.07 0.09 0.12 0.11 0.10 0.12 0.13 0.12 0.08 0.07 0.06 0.04 0.04 0.03 0.03 0.03 0.04
0.07 0.09 0.11 0.12 0.14 0.12 0.11 0.10 0.09 0.09 0.09 0.08 0.06 0.06 0.05 0.06 0.06 0.08 0.08 0.06 0.05 0.05 0.06 0.04 0.04 0.05 0.06 0.07 0.10 0.13 0.12 0.10 0.10 0.13 0.12 0.09 0.07 0.05 0.04 0.03 0.03 0.03 0.03
0.07 0.09 0.10 0.12 0.12 0.11 0.10 0.08 0.07 0.06 0.06 0.05 0.04 0.05 0.05 0.07 0.07 0.09 0.09 0.07 0.06 0.06 0.05 0.06 0.06 0.06 0.06 0.07 0.11 0.10 0.08 0.05 0.05 0.08 0.10 0.10 0.10 0.09 0.08 0.07 0.06 0.05 0.05
0.08 0.11 0.12 0.12 0.11 0.11 0.09 0.06 0.04 0.04 0.05 0.04 0.04 0.05 0.06 0.06 0.07 0.08 0.07 0.07 0.08 0.07 0.06 0.06 0.06 0.07 0.07 0.08 0.06 0.04 0.04 0.04 0.04 0.04 0.05 0.04 0.05 0.05 0.07 0.09 0.10 0.11 0.11
0.09 0.12 0.14 0.14 0.15 0.14 0.10 0.07 0.06 0.05 0.06 0.06 0.07 0.07 0.06 0.05 0.07 0.08 0.07 0.05 0.05 0.06 0.05 0.05 0.06 0.06 0.07 0.07 0.07 0.05 0.04 0.03 0.03 0.04 0.04 0.04 0.03 0.04 0.06 0.08 0.11 0.11 0.11
0.07 0.08 0.09 0.11 0.12 0.12 0.10 0.07 0.07 0.05 0.05 0.05 0.05 0.05 0.05 0.06 0.06 0.05 0.08 0.07 0.05 0.06 0.06 0.05 0.04 0.04 0.06 0.06 0.05 0.03 0.03 0.03 0.03 0.04 0.04 0.04 0.04 0.03 0.04 0.06 0.09 0.08 0.08
0.06 0.06 0.07 0.07 0.08 0.09 0.11 0.11 0.10 0.06 0.05 0.05 0.05 0.04 0.06 0.09 0.08 0.07 0.07 0.06 0.05 0.06 0.06 0.05 0.04 0.04 0.03 0.03 0.03 0.02 0.02 0.02 0.03 0.05 0.05 0.05 0.05 0.05 0.05 0.04 0.04 0.05 0.06
0.06 0.06 0.06 0.06 0.07 0.07 0.09 0.09 0.08 0.06 0.04 0.04 0.03 0.03 0.07 0.09 0.08 0.06 0.04 0.03 0.03 0.03 0.04 0.04 0.03 0.02 0.03 0.03 0.03 0.02 0.02 0.03 0.03 0.05 0.06 0.07 0.07 0.07 0.05 0.04 0.04 0.04 0.04
0.10 0.11 0.09 0.08 0.09 0.08 0.10 0.08 0.07 0.04 0.03 0.02 0.01 0.02 0.04 0.04 0.03 0.03 0.02 0.01 0.01 0.02 0.03 0.03 0.02 0.02 0.02 0.02 0.03 0.02 0.02 0.03 0.04 0.05 0.05 0.05 0.05 0.05 0.04 0.03 0.03 0.02 0.03
MSLP
1017.52 1017.61 1017.62 1017.60 1017.58 1017.60 1017.68 1017.82 1018.02 1018.25 1018.49 1018.73 1018.93 1019.12 1019.30 1019.49 1019.69 1019.92 1020.17 1020.43 1020.68 1020.91 1021.11 1021.27 1021.41 1021.54 1021.66 1021.80 1021.96 1022.12 1022.30 1022.48 1022.66 1022.82 1022.97 1023.12 1023.26 1023.42 1023.58 1023.74 1023.89 1024.03 1024.14
1017.76 1017.84 1017.85 1017.82 1017.79 1017.81 1017.89 1018.04 1018.25 1018.50 1018.77 1019.02 1019.25 1019.44 1019.62 1019.77 1019.94 1020.11 1020.30 1020.51 1020.72 1020.93 1021.13 1021.32 1021.49 1021.65 1021.81 1021.97 1022.12 1022.28 1022.44 1022.59 1022.74 1022.89 1023.04 1023.20 1023.36 1023.54 1023.73 1023.91 1024.07 1024.22 1024.33
1017.88 1017.96 1017.97 1017.97 1017.97 1018.01 1018.11 1018.28 1018.51 1018.78 1019.06 1019.32 1019.56 1019.75 1019.91 1020.04 1020.15 1020.27 1020.40 1020.55 1020.72 1020.90 1021.09 1021.29 1021.49 1021.69 1021.88 1022.06 1022.23 1022.38 1022.52 1022.65 1022.77 1022.90 1023.04 1023.19 1023.37 1023.56 1023.77 1023.97 1024.15 1024.31 1024.44
1017.86 1017.95 1018.01 1018.05 1018.10 1018.19 1018.34 1018.54 1018.78 1019.06 1019.33 1019.60 1019.83 1020.01 1020.15 1020.25 1020.33 1020.40 1020.47 1020.56 1020.67 1020.82 1020.99 1021.19 1021.41 1021.64 1021.86 1022.06 1022.25 1022.41 1022.54 1022.65 1022.75 1022.85 1022.97 1023.12 1023.29 1023.49 1023.71 1023.92 1024.13 1024.31 1024.45
1017.75 1017.86 1017.97 1018.07 1018.20 1018.35 1018.54 1018.77 1019.02 1019.29 1019.56 1019.81 1020.02 1020.20 1020.33 1020.41 1020.47 1020.50 1020.52 1020.56 1020.62 1020.72 1020.86 1021.04 1021.26 1021.50 1021.75 1021.98 1022.19 1022.36 1022.49 1022.60 1022.69 1022.77 1022.88 1023.01 1023.17 1023.37 1023.59 1023.81 1024.02 1024.21 1024.36
1017.58 1017.72 1017.88 1018.06 1018.26 1018.48 1018.71 1018.96 1019.21 1019.46 1019.70 1019.93 1020.13 1020.30 1020.43 1020.52 1020.56 1020.58 1020.57 1020.56 1020.57 1020.62 1020.72 1020.87 1021.07 1021.31 1021.56 1021.81 1022.04 1022.24 1022.39 1022.50 1022.59 1022.68 1022.77 1022.90 1023.05 1023.23 1023.44 1023.65 1023.86 1024.05 1024.20
1017.39 1017.56 1017.78 1018.03 1018.30 1018.57 1018.84 1019.09 1019.33 1019.56 1019.77 1019.97 1020.16 1020.34 1020.48 1020.58 1020.64 1020.66 1020.64 1020.59 1020.56 1020.54 1020.58 1020.67 1020.83 1021.04 1021.29 1021.55 1021.80 1022.02 1022.21 1022.35 1022.47 1022.57 1022.67 1022.79 1022.94 1023.11 1023.30 1023.49 1023.68 1023.85 1024.00
1017.22 1017.42 1017.68 1017.98 1018.31 1018.62 1018.91 1019.16 1019.38 1019.57 1019.75 1019.93 1020.12 1020.30 1020.47 1020.62 1020.71 1020.74 1020.72 1020.65 1020.56 1020.48 1020.44 1020.45 1020.54 1020.71 1020.93 1021.18 1021.45 1021.70 1021.93 1022.12 1022.27 1022.41 1022.55 1022.68 1022.83 1022.99 1023.17 1023.34 1023.50 1023.65 1023.77
1017.08 1017.28 1017.57 1017.91 1018.27 1018.61 1018.91 1019.14 1019.33 1019.49 1019.64 1019.81 1020.00 1020.21 1020.42 1020.60 1020.74 1020.80 1020.78 1020.69 1020.56 1020.40 1020.27 1020.20 1020.21 1020.30 1020.47 1020.70 1020.97 1021.25 1021.52 1021.76 1021.98 1022.17 1022.35 1022.52 1022.69 1022.86 1023.03 1023.18 1023.32 1023.44 1023.53
1016.93 1017.14 1017.44 1017.80 1018.17 1018.52 1018.81 1019.02 1019.19 1019.32 1019.44 1019.60 1019.80 1020.03 1020.28 1020.52 1020.70 1020.79 1020.79 1020.68 1020.50 1020.28 1020.06 1019.89 1019.80 1019.81 1019.91 1020.11 1020.36 1020.65 1020.96 1021.26 1021.54 1021.80 1022.04 1022.26 1022.46 1022.66 1022.83 1022.98 1023.10 1023.20 1023.28
1016.74 1016.94 1017.24 1017.60 1017.97 1018.31 1018.58 1018.78 1018.92 1019.02 1019.13 1019.28 1019.49 1019.75 1020.04 1020.32 1020.54 1020.67 1020.68 1020.56 1020.34 1020.07 1019.77 1019.51 1019.32 1019.24 1019.27 1019.41 1019.64 1019.93 1020.25 1020.59 1020.93 1021.25 1021.55 1021.84 1022.10 1022.33 1022.53 1022.70 1022.83 1022.93 1023.01
1016.47 1016.66 1016.94 1017.29 1017.64 1017.96 1018.22 1018.40 1018.51 1018.60 1018.70 1018.85 1019.06 1019.34 1019.66 1019.97 1020.22 1020.37 1020.40 1020.28 1020.05 1019.73 1019.38 1019.05 1018.78 1018.63 1018.59 1018.66 1018.85 1019.11 1019.44 1019.80 1020.17 1020.55 1020.91 1021.26 1021.58 1021.87 1022.12 1022.32 1022.48 1022.61 1022.70
1016.10 1016.26 1016.52 1016.84 1017.17 1017.48 1017.71 1017.88 1017.98 1018.06 1018.15 1018.30 1018.51 1018.79 1019.11 1019.44 1019.71 1019.88 1019.92 1019.82 1019.59 1019.27 1018.89 1018.53 1018.22 1018.00 1017.90 1017.92 1018.06 1018.29 1018.59 1018.95 1019.34 1019.74 1020.16 1020.56 1020.94 1021.29 1021.60 1021.86 1022.07 1022.23 1022.36
1015.62 1015.75 1015.98 1016.28 1016.58 1016.86 1017.09 1017.24 1017.34 1017.42 1017.50 1017.64 1017.84 1018.11 1018.42 1018.73 1019.01 1019.19 1019.26 1019.18 1018.98 1018.68 1018.33 1017.97 1017.65 1017.42 1017.28 1017.26 1017.34 1017.53 1017.79 1018.13 1018.51 1018.93 1019.37 1019.81 1020.24 1020.65 1021.02 1021.35 1021.62 1021.84 1022.02
1015.05 1015.16 1015.37 1015.63 1015.92 1016.18 1016.40 1016.55 1016.65 1016.72 1016.79 1016.91 1017.08 1017.32 1017.60 1017.89 1018.16 1018.35 1018.43 1018.39 1018.25 1018.01 1017.71 1017.40 1017.12 1016.90 1016.76 1016.72 1016.77 1016.91 1017.13 1017.43 1017.79 1018.19 1018.64 1019.10 1019.57 1020.03 1020.46 1020.84 1021.17 1021.46 1021.69
1014.45 1014.54 1014.72 1014.97 1015.23 1015.49 1015.70 1015.85 1015.94 1016.01 1016.07 1016.16 1016.29 1016.48 1016.72 1016.97 1017.20 1017.39 1017.49 1017.50 1017.42 1017.26 1017.06 1016.83 1016.62 1016.45 1016.34 1016.30 1016.34 1016.46 1016.64 1016.90 1017.23 1017.61 1018.04 1018.51 1018.99 1019.48 1019.95 1020.38 1020.77 1021.11 1021.40
1013.88 1013.95 1014.12 1014.34 1014.60 1014.84 1015.05 1015.19 1015.28 1015.34 1015.37 1015.42 1015.51 1015.64 1015.82 1016.01 1016.21 1016.38 1016.49 1016.55 1016.54 1016.47 1016.37 1016.25 1016.13 1016.04 1015.99 1015.99 1016.04 1016.14 1016.31 1016.54 1016.84 1017.19 1017.61 1018.06 1018.55 1019.04 1019.53 1019.99 1020.41 1020.79 1021.13
1013.37 1013.44 1013.59 1013.81 1014.05 1014.28 1014.47 1014.61 1014.69 1014.72 1014.73 1014.74 1014.77 1014.84 1014.94 1015.08 1015.23 1015.37 1015.48 1015.57 1015.62 1015.63 1015.63 1015.61 1015.60 1015.60 1015.62 1015.67 1015.76 1015.88 1016.05 1016.28 1016.55 1016.89 1017.28 1017.72 1018.19 1018.68 1019.17 1019.64 1020.08 1020.48 1020.85
1012.94 1013.02 1013.17 1013.37 1013.60 1013.81 1013.99 1014.10 1014.16 1014.16 1014.13 1014.10 1014.07 1014.08 1014.12 1014.19 1014.29 1014.39 1014.49 1014.59 1014.67 1014.74 1014.81 1014.88 1014.96 1015.04 1015.14 1015.26 1015.39 1015.56 1015.75 1015.99 1016.27 1016.60 1016.98 1017.41 1017.86 1018.34 1018.81 1019.27 1019.71 1020.12 1020.51
1012.61 1012.69 1012.84 1013.02 1013.22 1013.41 1013.55 1013.63 1013.65 1013.62 1013.56 1013.48 1013.41 1013.36 1013.35 1013.36 1013.40 1013.46 1013.54 1013.62 1013.71 1013.81 1013.91 1014.03 1014.16 1014.31 1014.47 1014.65 1014.84 1015.05 1015.29 1015.56 1015.86 1016.21 1016.59 1017.01 1017.46 1017.91 1018.37 1018.82 1019.25 1019.67 1020.08
1012.35 1012.43 1012.57 1012.73 1012.89 1013.03 1013.13 1013.16 1013.14 1013.07 1012.97 1012.86 1012.76 1012.67 1012.62 1012.59 1012.59 1012.61 1012.64 1012.68 1012.75 1012.82 1012.92 1013.05 1013.20 1013.37 1013.57 1013.79 1014.03 1014.29 1014.58 1014.90 1015.24 1015.62 1016.02 1016.45 1016.90 1017.35 1017.80 1018.24 1018.67 1019.09 1019.52
1012.14 1012.22 1012.34 1012.46 1012.57 1012.65 1012.68 1012.65 1012.58 1012.48 1012.35 1012.22 1012.10 1012.01 1011.93 1011.88 1011.85 1011.82 1011.81 1011.80 1011.81 1011.84 1011.89 1011.97 1012.10 1012.26 1012.46 1012.70 1012.97 1013.28 1013.61 1013.98 1014.37 1014.79 1015.23 1015.68 1016.15 1016.61 1017.07 1017.52 1017.97 1018.41 1018.87
1011.99 1012.04 1012.12 1012.18 1012.22 1012.23 1012.18 1012.10 1011.98 1011.84 1011.70 1011.57 1011.46 1011.37 1011.31 1011.25 1011.20 1011.14 1011.08 1011.01 1010.94 1010.89 1010.86 1010.88 1010.94 1011.05 1011.23 1011.45 1011.73 1012.06 1012.43 1012.84 1013.28 1013.74 1014.23 1014.72 1015.22 1015.72 1016.21 1016.69 1017.18 1017.67 1018.18
1011.87 1011.89 1011.90 1011.90 1011.86 1011.78 1011.66 1011.51 1011.35 1011.19 1011.05 1010.94 1010.86 1010.80 1010.76 1010.72 1010.66 1010.58 1010.47 1010.34 1010.19 1010.05 1009.93 1009.84 1009.82 1009.86 1009.97 1010.16 1010.43 1010.75 1011.14 1011.58 1012.06 1012.57 1013.10 1013.64 1014.19 1014.74 1015.29 1015.83 1016.38 1016.94 1017.52
1011.80 1011.76 1011.70 1011.62 1011.50 1011.33 1011.14 1010.94 1010.75 1010.58 1010.46 1010.38 1010.34 1010.33 1010.33 1010.31 1010.26 1010.16 1010.02 1009.82 1009.60 1009.36 1009.14 1008.95 1008.83 1008.79 1008.83 1008.97 1009.19 1009.50 1009.88 1010.33 1010.83 1011.37 1011.94 1012.54 1013.14 1013.76 1014.37 1015.00 1015.63 1016.28 1016.95
1011.76 1011.66 1011.53 1011.36 1011.16 1010.93 1010.69 1010.45 1010.24 1010.08 1009.98 1009.94 1009.95 1009.99 1010.02 1010.03 1009.99 1009.88 1009.70 1009.45 1009.16 1008.84 1008.53 1008.25 1008.04 1007.92 1007.89 1007.96 1008.13 1008.40 1008.76 1009.20 1009.70 1010.26 1010.86 1011.50 1012.16 1012.84 1013.54 1014.25 1014.98 1015.72 1016.48
Thickness
5757 5756 5756 5755 5755 5755 5754 5754 5754 5753 5753 5753 5752 5751 5749 5748 5747 5746 5744 5743 5741 5740 5738 5736 5734 5732 5730 5729 5727 5726 5725 5724 5722 5721 5719 5718 5717 5716 5714 5713 5712 5711 5710
5759 5757 5757 5756 5755 5755 5755 5754 5754 5754 5753 5753 5752 5752 5750 5749 5748 5747 5745 5743 5742 5740 5739 5736 5734 5733 5731 5729 5728 5726 5725 5724 5722 5721 5719 5718 5717 5715 5714 5713 5711 5711 5710
5759 5758 5757 5756 5756 5756 5756 5755 5754 5754 5753 5753 5752 5752 5751 5750 5749 5747 5746 5744 5743 5741 5739 5737 5736 5734 5732 5730 5729 5727 5725 5724 5723 5721 5720 5718 5716 5715 5714 5713 5711 5710 5709
5760 5759 5757 5757 5757 5756 5755 5754 5754 5752 5751 5751 5751 5752 5752 5751 5750 5748 5747 5746 5744 5742 5739 5738 5736 5734 5732 5731 5730 5728 5726 5725 5723 5722 5720 5719 5717 5716 5714 5713 5712 5711 5709
5761 5760 5758 5758 5757 5757 5756 5755 5753 5752 5750 5750 5750 5752 5752 5751 5751 5750 5748 5746 5744 5742 5740 5738 5736 5734 5733 5731 5730 5729 5727 5725 5724 5722 5721 5720 5718 5717 5715 5714 5713 5711 5710
5763 5761 5759 5758 5758 5756 5755 5754 5753 5752 5751 5750 5751 5751 5751 5752 5752 5750 5749 5747 5744 5742 5740 5738 5736 5735 5733 5732 5730 5729 5728 5726 5724 5723 5722 5721 5719 5718 5717 5715 5714 5712 5710
5763 5761 5760 5759 5758 5755 5754 5754 5752 5751 5749 5750 5747 5745 5747 5750 5750 5750 5749 5747 5745 5742 5741 5739 5737 5735 5733 5732 5730 5729 5728 5727 5725 5724 5722 5722 5721 5719 5718 5716 5715 5713 5711
5765 5763 5761 5759 5758 5756 5754 5753 5752 5749 5749 5749 5744 5738 5735 5738 5744 5749 5747 5746 5744 5742 5741 5739 5737 5735 5733 5732 5731 5730 5728 5727 5725 5725 5724 5722 5721 5720 5718 5717 5715 5714 5712
5766 5764 5762 5761 5759 5756 5754 5753 5752 5749 5746 5747 5747 5740 5732 5728 5734 5740 5743 5744 5743 5741 5740 5738 5737 5735 5732 5731 5731 5729 5729 5727 5726 5725 5724 5722 5721 5720 5718 5717 5716 5714 5712
5767 5765 5764 5762 5760 5758 5755 5754 5754 5751 5748 5744 5745 5745 5742 5738 5731 5730 5735 5740 5741 5739 5739 5738 5736 5734 5731 5730 5729 5729 5728 5727 5725 5724 5723 5722 5721 5720 5718 5717 5715 5713 5711
5767 5766 5765 5763 5761 5759 5757 5755 5754 5752 5749 5745 5743 5742 5741 5739 5737 5730 5727 5731 5734 5736 5736 5735 5734 5732 5731 5729 5727 5727 5726 5725 5724 5723 5722 5721 5719 5719 5718 5716 5714 5712 5710
5767 5766 5765 5763 5761 5759 5757 5755 5754 5752 5749 5747 5745 5743 5740 5736 5734 5731 5727 5726 5726 5730 5732 5732 5731 5730 5728 5727 5725 5724 5723 5722 5721 5720 5719 5718 5717 5716 5715 5714 5712 5710 5708
5765 5765 5765 5763 5761 5759 5757 5756 5753 5751 5749 5746 5744 5742 5741 5740 5738 5735 5730 5726 5724 5725 5727 5728 5728 5727 5725 5724 5722 5721 5720 5719 5718 5716 5715 5714 5713 5712 5712 5710 5708 5706 5704
5766 5766 5764 5762 5760 5758 5757 5754 5752 5750 5748 5745 5744 5742 5741 5740 5739 5736 5733 5727 5722 5720 5721 5722 5723 5723 5722 5720 5718 5717 5716 5714 5713 5712 5710 5710 5708 5707 5706 5704 5703 5701 5699
5768 5766 5764 5761 5759 5757 5755 5753 5749 5748 5746 5744 5742 5740 5739 5738 5738 5737 5734 5731 5723 5716 5714 5717 5717 5719 5718 5716 5715 5713 5712 5710 5708 5707 5705 5704 5703 5701 5700 5698 5697 5695 5693
5767 5765 5763 5760 5758 5756 5753 5750 5747 5745 5743 5741 5740 5738 5736 5735 5735 5735 5733 5730 5727 5720 5713 5714 5714 5714 5713 5712 5710 5708 5706 5705 5703 5701 5700 5698 5696 5695 5693 5692 5690 5688 5686
5765 5763 5762 5759 5756 5753 5751 5748 5745 5743 5740 5738 5737 5735 5733 5733 5731 5730 5729 5727 5723 5719 5712 5710 5710 5709 5707 5705 5703 5702 5701 5699 5697 5695 5693 5692 5690 5688 5686 5685 5683 5681 5680
5764 5761 5760 5757 5754 5751 5749 5745 5743 5740 5737 5734 5733 5731 5729 5729 5726 5725 5723 5720 5718 5715 5710 5704 5703 5702 5701 5699 5697 5695 5694 5691 5690 5688 5686 5684 5683 5681 5679 5677 5676 5674 5672
5761 5759 5757 5754 5751 5748 5745 5742 5740 5737 5734 5732 5729 5727 5725 5723 5720 5719 5717 5714 5712 5710 5706 5700 5696 5695 5693 5692 5690 5688 5686 5684 5682 5679 5677 5676 5674 5673 5671 5670 5668 5666 5665
5756 5754 5752 5750 5747 5744 5741 5739 5736 5733 5730 5728 5726 5723 5721 5718 5716 5713 5711 5708 5706 5702 5698 5694 5689 5686 5684 5683 5681 5678 5676 5675 5673 5671 5668 5666 5665 5663 5662 5661 5659 5657 5656
5752 5749 5747 5745 5743 5740 5737 5734 5731 5728 5725 5722 5719 5717 5715 5714 5712 5709 5706 5702 5699 5694 5690 5686 5681 5678 5675 5673 5671 5669 5666 5665 5663 5661 5658 5656 5655 5654 5652 5651 5649 5648 5647
5745 5743 5740 5738 5735 5733 5731 5729 5727 5723 5719 5716 5712 5710 5709 5707 5705 5702 5700 5697 5694 5689 5683 5679 5674 5671 5667 5665 5663 5662 5657 5655 5652 5651 5648 5646 5645 5643 5642 5641 5639 5639 5637
5739 5736 5733 5730 5728 5726 5724 5722 5720 5716 5711 5709 5706 5703 5701 5699 5696 5694 5692 5690 5686 5683 5680 5674 5669 5665 5662 5660 5656 5653 5650 5647 5644 5642 5639 5635 5634 5632 5632 5631 5630 5628 5627
5732 5729 5726 5724 5721 5719 5717 5715 5712 5708 5704 5701 5698 5696 5693 5690 5688 5686 5683 5679 5676 5673 5670 5668 5664 5660 5658 5655 5651 5647 5643 5639 5636 5633 5631 5625 5624 5623 5623 5621 5620 5618 5616
5725 5722 5719 5716 5713 5711 5709 5708 5705 5700 5696 5692 5690 5688 5685 5682 5680 5677 5674 5669 5666 5663 5662 5659 5657 5654 5651 5647 5644 5639 5633 5628 5624 5622 5620 5617 5614 5612 5611 5610 5608 5606 5605
5718 5715 5711 5708 5706 5703 5701 5700 5698 5694 5688 5684 5681 5679 5677 5674 5671 5669 5665 5661 5656 5653 5651 5649 5646 5644 5641 5638 5635 5631 5626 5620 5614 5611 5611 5607 5604 5602 5599 5598 5597 5595 5593